Weather reports worldwide

Advertisment
Ueckermünde, Germany (10193): temperature & dewpoint: 17.10.2020 01:00:00 - 23.10.2020 01:00:00 (CEST)Ueckermünde, Germany (10193): temperature 5cm & temperature -5cm: 17.10.2020 01:00:00 - 23.10.2020 01:00:00 (CEST)Ueckermünde, Germany (10193): temperature -20cm & temperature -100cm: 17.10.2020 01:00:00 - 23.10.2020 01:00:00 (CEST)Ueckermünde, Germany (10193): wind speed & gusts: 17.10.2020 01:00:00 - 23.10.2020 01:00:00 (CEST)Ueckermünde, Germany (10193): wind direction: 17.10.2020 01:00:00 - 23.10.2020 01:00:00 (CEST)Ueckermünde, Germany (10193): reduced air pressure: 17.10.2020 01:00:00 - 23.10.2020 01:00:00 (CEST)Ueckermünde, Germany (10193): visibility: 17.10.2020 01:00:00 - 23.10.2020 01:00:00 (CEST)Ueckermünde, Germany (10193): sunshine duration: 17.10.2020 01:00:00 - 23.10.2020 01:00:00 (CEST)Ueckermünde, Germany (10193): precipitation: 17.10.2020 01:00:00 - 23.10.2020 01:00:00 (CEST)
Date & Time tt [°C] td [°C] tt 5cm [°C] tt -5cm [°C] tt -20cm [°C] tt -100cm [°C] ff [km/h] ff [kn] fx [km/h] fx [kn] dd ppp [hPa] vv [km] sd [min] rr [mm]
23.10.2020 01:00:00 13,8 11,6 12,7 11,8 12,5 12,1 18 10 33 18 SW 1009,9 75 0 0,0
23.10.2020 00:00:00 14,0 11,8 13,2 12,6 12,6 12,1 18 10 37 20 SSW 1009,9 72 0 0,3
22.10.2020 23:00:00 15,3 12,9 14,3 12,7 12,6 12,0 22 12 32 17 SW 1010,0 58 0 0,1
22.10.2020 22:00:00 14,7 12,2 13,8 12,3 12,7 12,0 12 7 26 14 SSW 1010,0 47 0 0,0
22.10.2020 21:00:00 15,3 12,3 14,2 12,7 12,8 12,0 14 8 25 13 SSW 1010,0 50 0 0,0
22.10.2020 20:00:00 15,4 12,5 14,6 12,9 12,9 12,0 13 7 21 12 SSW 1010,4 53 0 0,0
22.10.2020 19:00:00 16,0 12,2 14,7 13,1 13,0 12,0 14 7 25 14 SSW 1010,9 57 0 0,0
22.10.2020 18:00:00 16,7 12,1 15,7 13,8 13,0 12,0 13 7 31 17 SW 1010,6 57 18 0,0
22.10.2020 17:00:00 17,7 12,3 17,0 15,2 12,9 12,0 16 9 29 16 SSW 1010,6 52 56 0,0
22.10.2020 16:00:00 18,5 12,1 18,7 15,6 12,7 12,0 18 10 32 17 SW 1010,7 64 38 0,0
22.10.2020 15:00:00 17,6 11,8 17,4 15,4 12,4 12,0 17 9 45 24 SW 1010,9 72 8 0,0
22.10.2020 14:00:00 18,1 12,0 18,4 15,8 12,1 12,0 27 15 41 22 SW 1011,1 55 20 0,0
22.10.2020 13:00:00 18,3 12,0 19,2 15,6 11,6 12,0 22 12 47 26 SW 1011,0 68 54 0,0
22.10.2020 12:00:00 17,8 11,8 18,6 14,4 11,3 12,0 22 12 37 20 SW 1011,1 68 60 0,0
22.10.2020 11:00:00 16,5 11,1 16,8 12,9 11,0 12,0 21 11 35 19 WSW 1010,7 75 60 0,0
22.10.2020 10:00:00 15,7 11,0 15,8 11,6 11,0 12,0 20 11 33 18 SW 1010,2 59 60 0,0
22.10.2020 09:00:00 15,0 10,9 13,7 11,1 10,9 12,0 19 10 39 21 WSW 1009,1 75 25 0,0
22.10.2020 08:00:00 15,4 10,7 14,0 11,2 10,9 12,0 26 14 52 28 WSW 1007,7 75 0 0,0
22.10.2020 07:00:00 16,3 11,0 15,0 11,3 10,8 12,0 33 18 50 27 WSW 1006,6 67 0 0,0
22.10.2020 06:00:00 16,3 10,6 15,1 11,0 10,7 12,0 31 17 51 27 SW 1005,5 54 0 0,0
22.10.2020 05:00:00 16,4 10,3 15,1 10,5 10,7 12,0 27 14 51 27 SW 1004,7 60 0 0,0
22.10.2020 04:00:00 15,4 9,5 14,0 10,3 10,7 12,0 22 12 40 22 SW 1004,7 54 0 0,0
22.10.2020 03:00:00 15,4 9,1 13,9 10,2 10,7 12,0 24 13 42 23 SSW 1004,4 56 0 0,0
22.10.2020 02:00:00 15,5 8,9 14,1 10,0 10,7 12,0 23 12 41 22 SSW 1004,6 51 0 0,0
22.10.2020 01:00:00 14,6 8,8 13,0 9,8 10,8 12,0 20 11 33 18 SSW 1004,5 47 0 0,0
22.10.2020 00:00:00 13,5 8,6 12,3 9,8 10,8 12,0 21 11 34 19 SSW 1004,6 46 0 0,0
21.10.2020 23:00:00 12,9 8,7 11,6 9,9 10,9 12,0 24 13 37 20 S 1004,8 50 0 0,0
21.10.2020 22:00:00 12,5 8,8 11,5 10,1 11,0 12,0 22 12 32 17 S 1004,9 45 0 0,0
21.10.2020 21:00:00 11,6 9,3 10,7 10,3 11,1 12,0 15 8 27 15 S 1005,1 41 0 0,0
21.10.2020 20:00:00 11,7 9,3 10,5 10,5 11,2 12,0 14 8 29 16 S 1004,9 42 0 0,0
21.10.2020 19:00:00 11,7 10,0 10,9 11,1 11,3 12,0 17 9 29 16 S 1005,3 36 0 0,2
21.10.2020 18:00:00 11,8 10,0 11,0 11,5 11,3 12,1 15 8 25 13 S 1006,1 27 0 0,1
21.10.2020 17:00:00 12,0 9,9 11,3 12,2 11,2 12,1 15 8 29 16 S 1006,4 34 0 0,0
21.10.2020 16:00:00 12,1 10,7 11,7 12,5 11,1 12,1 14 8 26 14 S 1007,5 19 0 0,0
21.10.2020 15:00:00 11,9 10,4 11,6 12,5 10,9 12,1 14 7 24 13 S 1007,9 21 0 0,1
21.10.2020 14:00:00 11,9 10,4 11,7 12,8 10,7 12,1 12 7 25 13 S 1008,2 15 0 0,1
21.10.2020 13:00:00 12,2 10,6 12,1 12,8 10,4 12,1 14 7 26 14 S 1008,7 26 0 0,0
21.10.2020 12:00:00 11,6 10,6 11,5 11,8 10,2 12,1 16 9 27 14 S 1009,2 23 0 0,0
21.10.2020 11:00:00 11,5 10,5 11,4 11,6 10,1 12,1 17 9 29 15 S 1009,6 22 0 0,0
21.10.2020 10:00:00 11,3 10,8 11,1 10,7 9,9 12,1 15 8 26 14 S 1009,6 11 0 0,1
21.10.2020 09:00:00 11,1 10,6 10,9 10,3 9,8 12,1 16 9 28 15 SSW 1009,5 9 0 0,5
21.10.2020 08:00:00 10,9 10,5 10,7 10,0 9,8 12,1 17 9 24 13 S 1009,3 7 0 0,6
21.10.2020 07:00:00 10,8 10,4 10,5 9,9 9,7 12,1 14 8 22 12 S 1009,4 8 0 0,6
21.10.2020 06:00:00 11,0 10,5 10,7 9,9 9,6 12,1 16 9 25 13 S 1009,6 8 0 0,6
21.10.2020 05:00:00 10,9 10,5 10,6 9,6 9,5 12,1 14 7 22 12 SSW 1009,8 5 0 0,6
21.10.2020 04:00:00 10,5 10,1 10,2 9,3 9,5 12,2 14 8 22 12 SSW 1009,9 8 0 0,1
21.10.2020 03:00:00 10,1 9,6 9,8 9,2 9,4 12,2 13 7 22 12 S 1009,9 9 0 0,1
21.10.2020 02:00:00 10,0 9,2 9,7 9,0 9,4 12,2 16 8 24 13 S 1010,4 15 0 0,0
21.10.2020 01:00:00 9,6 8,8 9,2 8,8 9,3 12,2 14 8 22 12 S 1010,3 15 0 0,0
21.10.2020 00:00:00 9,2 8,4 8,7 8,7 9,3 12,2 11 6 21 11 SSW 1010,9 16 0 0,0
20.10.2020 23:00:00 9,2 8,2 8,8 8,6 9,3 12,2 11 6 24 13 SSW 1011,1 17 0 0,0
20.10.2020 22:00:00 9,1 8,2 8,7 8,5 9,3 12,2 18 10 29 15 SSW 1011,1 13 0 1,5
20.10.2020 21:00:00 9,4 7,1 8,4 8,3 9,3 12,2 18 10 29 16 S 1011,1 14 0 0,2
20.10.2020 20:00:00 9,5 6,7 9,1 8,3 9,3 12,2 11 6 22 12 S 1011,4 34 0 0,0
20.10.2020 19:00:00 9,6 6,6 9,1 8,3 9,4 12,3 13 7 29 15 S 1011,7 30 0 0,0
20.10.2020 18:00:00 9,5 6,5 8,9 8,6 9,4 12,3 16 8 34 18 SSE 1011,7 29 0 0,0
20.10.2020 17:00:00 10,0 6,2 9,6 9,4 9,3 12,3 16 9 39 21 S 1012,6 30 0 0,0
20.10.2020 16:00:00 10,4 6,0 10,4 10,0 9,1 12,3 21 11 38 20 SSE 1012,8 39 0 0,0
20.10.2020 15:00:00 10,4 5,6 10,3 10,1 8,9 12,3 18 10 37 20 S 1014,2 36 0 0,0
20.10.2020 14:00:00 10,2 5,3 10,3 10,0 8,7 12,3 22 12 35 19 SSE 1014,5 39 0 0,0
20.10.2020 13:00:00 10,0 5,6 10,3 9,6 8,4 12,3 20 11 41 22 S 1016,0 33 0 0,0
20.10.2020 12:00:00 9,3 5,4 9,5 9,0 8,1 12,3 22 12 39 21 SSE 1016,7 28 2 0,0
20.10.2020 11:00:00 8,4 5,4 8,4 7,9 8,0 12,3 14 8 27 15 SE 1017,0 25 3 0,0
20.10.2020 10:00:00 6,9 5,1 6,8 6,7 7,9 12,3 12 6 20 11 SE 1018,7 18 10 0,0
20.10.2020 09:00:00 5,5 4,5 5,1 5,4 8,0 12,4 11 6 18 10 SSE 1019,2 12 3 0,0
20.10.2020 08:00:00 5,3 4,7 4,4 5,0 8,1 12,4 11 6 21 11 SSE 1019,2 11 0 0,0
20.10.2020 07:00:00 5,3 4,6 4,6 5,1 8,2 12,4 13 7 18 10 SSE 1019,7 13 0 0,0
20.10.2020 06:00:00 4,8 4,3 4,1 5,2 8,3 12,4 9 5 18 10 S 1020,3 15 0 0,0
20.10.2020 05:00:00 5,2 4,4 4,6 5,4 8,4 12,4 11 6 16 9 S 1020,1 24 0 0,0
20.10.2020 04:00:00 5,7 4,6 5,2 6,0 8,5 12,4 9 5 16 9 S 1020,6 38 0 0,0
20.10.2020 03:00:00 5,7 4,6 5,5 5,8 8,6 12,4 10 5 15 8 S 1021,1 47 0 0,0
20.10.2020 02:00:00 5,2 4,4 4,7 5,3 8,9 12,4 9 5 13 7 S 1021,6 48 0 0,0
20.10.2020 01:00:00 5,0 4,2 3,9 5,4 9,1 12,4 10 5 15 8 S 1021,6 46 0 0,0
20.10.2020 00:00:00 5,3 4,2 4,0 6,1 9,3 12,4 11 6 16 8 SSW 1021,6 56 0 0,0
19.10.2020 23:00:00 7,1 5,0 6,5 7,2 9,4 12,4 10 5 13 7 SSW 1021,8 67 0 0,0
19.10.2020 22:00:00 7,6 5,1 7,0 7,4 9,5 12,5 8 5 14 8 SSW 1021,9 70 0 0,0
19.10.2020 21:00:00 7,7 5,4 6,8 7,3 9,6 12,5 8 4 14 7 SW 1021,7 63 0 0,0
19.10.2020 20:00:00 8,5 5,8 7,8 7,8 9,8 12,5 8 4 12 7 SSW 1021,3 52 0 0,0
19.10.2020 19:00:00 8,9 5,9 7,5 8,5 9,8 12,5 8 4 14 8 SSW 1021,3 55 0 0,0
19.10.2020 18:00:00 9,9 5,9 9,2 9,3 9,8 12,5 11 6 17 9 SW 1021,0 75 0 0,0
19.10.2020 17:00:00 10,4 5,7 10,0 9,9 9,8 12,5 10 5 21 11 WSW 1021,1 75 0 0,0
19.10.2020 16:00:00 10,7 5,3 10,5 10,4 9,6 12,5 12 7 21 11 WSW 1021,0 75 1 0,0
19.10.2020 15:00:00 10,5 4,9 10,2 10,9 9,3 12,5 20 11 29 16 W 1021,0 69 21 0,0
19.10.2020 14:00:00 10,2 4,6 10,1 10,1 9,0 12,5 12 7 23 12 W 1021,0 51 16 0,0
19.10.2020 13:00:00 10,0 5,2 11,0 10,7 8,5 12,5 10 6 29 16 WNW 1021,2 53 40 0,0
19.10.2020 12:00:00 10,1 5,9 12,0 9,6 8,1 12,5 16 9 25 13 W 1021,0 53 60 0,0
19.10.2020 11:00:00 8,4 5,3 9,8 7,5 7,8 12,6 15 8 24 13 WSW 1020,7 51 60 0,0
19.10.2020 10:00:00 6,5 4,7 7,4 5,5 7,8 12,6 12 6 20 11 WSW 1020,4 55 49 0,0
19.10.2020 09:00:00 4,8 3,9 4,1 4,6 7,9 12,6 11 6 18 10 SW 1020,1 39 0 0,0
19.10.2020 08:00:00 4,2 3,4 3,2 4,1 8,1 12,6 11 6 21 11 WSW 1019,4 37 0 0,0
19.10.2020 07:00:00 4,1 3,2 3,2 4,4 8,2 12,6 13 7 21 11 SW 1019,1 40 0 0,0
19.10.2020 06:00:00 4,0 3,2 3,0 4,0 8,4 12,6 10 6 20 11 SW 1019,0 40 0 0,0
19.10.2020 05:00:00 4,2 3,2 3,1 4,1 8,6 12,6 13 7 20 11 WSW 1018,9 39 0 0,0
19.10.2020 04:00:00 4,2 3,1 2,9 4,4 8,9 12,6 12 7 20 11 SW 1018,6 39 0 0,0
19.10.2020 03:00:00 4,8 3,5 3,7 4,6 9,1 12,6 12 7 19 11 WSW 1018,4 45 0 0,0
19.10.2020 02:00:00 4,9 3,2 3,7 4,9 9,4 12,6 13 7 19 11 WSW 1018,1 45 0 0,0
19.10.2020 01:00:00 4,7 2,9 3,4 5,2 9,7 12,6 13 7 21 11 WSW 1017,7 46 0 0,0
19.10.2020 00:00:00 4,9 3,1 3,6 5,9 10,0 12,6 11 6 18 10 SW 1017,3 55 0 0,0
18.10.2020 23:00:00 5,4 4,0 4,4 6,5 10,3 12,6 9 5 14 7 SSW 1017,1 66 0 0,0
18.10.2020 22:00:00 6,3 4,7 5,1 7,6 10,5 12,6 9 5 37 20 SW 1016,8 52 0 0,3
18.10.2020 21:00:00 7,1 4,7 6,7 7,8 10,7 12,6 9 5 28 15 SW 1016,4 70 0 0,0
18.10.2020 20:00:00 8,3 4,2 7,4 8,4 10,9 12,6 16 8 26 14 W 1016,4 24 0 0,0
18.10.2020 19:00:00 8,2 4,0 7,0 9,0 11,1 12,6 9 5 22 12 W 1016,0 75 0 0,0
18.10.2020 18:00:00 8,7 5,3 7,6 10,1 11,2 12,6 8 5 20 11 WNW 1015,2 75 3 0,0
18.10.2020 17:00:00 9,2 5,3 9,8 11,3 11,1 12,6 10 6 35 19 NNW 1015,0 75 27 0,0
18.10.2020 16:00:00 10,6 4,6 12,6 11,7 11,0 12,6 11 6 33 18 NW 1014,3 75 16 0,0
18.10.2020 15:00:00 12,0 3,6 13,5 12,1 10,8 12,6 19 10 37 20 WNW 1013,8 75 46 0,0
18.10.2020 14:00:00 10,9 4,7 10,8 11,7 10,5 12,7 19 10 37 20 WNW 1013,5 59 38 0,0
18.10.2020 13:00:00 11,3 5,2 12,6 11,6 10,2 12,7 24 13 37 20 W 1013,4 62 40 0,0
18.10.2020 12:00:00 11,0 5,9 11,1 11,0 10,0 12,7 20 11 35 19 W 1013,0 69 59 0,0
18.10.2020 11:00:00 10,1 6,6 10,1 9,9 9,8 12,7 18 10 41 22 W 1012,9 51 21 0,0
18.10.2020 10:00:00 9,1 7,1 8,7 9,3 9,8 12,7 20 11 48 26 W 1012,7 47 0 0,3
18.10.2020 09:00:00 8,6 7,8 8,4 8,6 9,7 12,7 21 12 41 22 WSW 1012,3 2,4 0 0,1
18.10.2020 08:00:00 8,4 7,4 8,1 8,2 9,8 12,7 23 13 35 19 WSW 1012,0 7 0 0,0
18.10.2020 07:00:00 8,3 6,7 7,8 8,0 9,8 12,7 22 12 33 18 WSW 1012,0 25 0 0,0
18.10.2020 06:00:00 7,8 5,9 7,6 7,8 9,9 12,7 18 10 29 16 SW 1012,5 57 0 0,0
18.10.2020 05:00:00 7,6 5,9 7,1 7,8 10,0 12,7 18 10 30 16 WSW 1013,1 12 0 0,0
18.10.2020 04:00:00 7,9 5,4 7,7 7,8 10,1 12,7 17 9 27 15 WSW 1013,6 75 0 0,0
18.10.2020 03:00:00 7,4 5,3 7,1 7,7 10,2 12,7 12 7 19 10 WSW 1014,6 69 0 0,0
18.10.2020 02:00:00 7,0 5,3 6,8 7,5 10,4 12,7 13 7 18 10 WSW 1015,0 74 0 0,0
18.10.2020 01:00:00 7,2 5,5 6,2 8,1 10,6 12,7 12 6 18 10 WSW 1015,6 69 0 0,0
18.10.2020 00:00:00 8,4 6,9 8,0 8,7 10,7 12,7 10 5 18 10 W 1015,8 67 0 0,0
17.10.2020 23:00:00 8,0 7,3 7,5 8,5 10,9 12,7 9 5 14 7 WSW 1016,2 48 0 0,0
17.10.2020 22:00:00 8,2 7,4 7,7 8,8 11,1 12,7 8 4 14 8 W 1016,8 59 0 0,0
17.10.2020 21:00:00 8,0 6,3 6,8 9,2 11,3 12,7 8 4 12 7 W 1016,8 75 0 0,0
17.10.2020 20:00:00 8,5 7,0 7,8 9,9 11,4 12,7 7 4 10 5 WSW 1017,0 75 0 0,0
17.10.2020 19:00:00 8,9 7,2 8,4 10,5 11,5 12,7 3 2 8 5 WSW 1017,2 75 0 0,0
17.10.2020 18:00:00 9,6 6,4 9,3 11,2 11,6 12,7 5 3 16 9 WNW 1017,2 75 0 0,0
17.10.2020 17:00:00 10,3 6,6 10,4 12,2 11,5 12,8 5 3 15 8 NNW 1017,4 74 0 0,0
17.10.2020 16:00:00 11,0 7,4 11,7 13,4 11,2 12,8 6 4 19 11 NW 1017,7 68 22 0,0
17.10.2020 15:00:00 10,6 7,3 11,5 13,6 10,8 12,8 11 6 19 11 NW 1017,8 38 33 0,0
17.10.2020 14:00:00 10,9 6,2 13,7 13,0 10,3 12,8 11 6 21 11 WNW 1018,2 62 59 0,0
17.10.2020 13:00:00 9,9 6,7 11,1 12,5 9,9 12,8 14 8 22 12 WNW 1018,8 75 13 0,0
17.10.2020 12:00:00 9,9 6,7 9,6 10,9 9,7 12,8 4 2 9 5 NNE 1019,3 24 0 0,3
17.10.2020 11:00:00 9,3 7,6 9,5 9,8 9,5 12,8 5 3 9 5 NW 1019,5 48 0 0,0
17.10.2020 10:00:00 8,5 8,0 8,6 8,5 9,4 12,8 2 1 5 3 SW 1019,5 29 0 0,0
17.10.2020 09:00:00 6,5 6,4 6,7 7,2 9,5 12,8 2 1 4 2 W 1019,5 22 0 0,0
17.10.2020 08:00:00 4,9 4,9 4,3 6,3 9,7 12,8 0 0 6 3 N 1019,3 13 0 0,0
17.10.2020 07:00:00 3,8 3,5 1,7 5,9 10,0 12,8 2 1 5 3 WSW 1019,4 0,2 0 0,0
17.10.2020 06:00:00 6,7 6,3 2,2 6,7 10,3 12,8 4 2 10 5 E 1019,2 43 0 0,0
17.10.2020 05:00:00 7,9 7,0 5,5 7,8 10,4 12,8 5 3 12 7 E 1019,2 48 0 0,0
17.10.2020 04:00:00 9,0 7,5 7,9 8,4 10,5 12,8 8 4 12 6 E 1019,3 62 0 0,0
17.10.2020 03:00:00 9,2 7,9 8,3 9,1 10,6 12,8 6 3 14 8 E 1019,5 72 0 0,0
17.10.2020 02:00:00 9,7 8,4 9,1 9,4 10,6 12,8 5 3 13 7 E 1019,5 75 0 0,1
17.10.2020 01:00:00 9,9 8,2 9,1 9,4 10,7 12,8 8 4 14 8 ENE 1019,7 70 0 0,1

tt = temperature
td = dewpoint
tt 5cm = temperature 5cm
tt -5cm = temperature -5cm
tt -20cm = temperature -20cm
tt -100cm = temperature -100cm
ff = wind speed
fx = gusts
dd = wind direction
ppp = reduced air pressure
vv = visibility
sd = sunshine duration
rr = precipitation

Next stations